| time (UTC) | temp F | wind direction | speed MPH | gust MPH | rain 1hr in | rain 24hr in | rain mn in | humidity % | barometer mb |
| 20260902164503 | 61 | 139 | 0.0 | 1.0 | 0.00 | 0.04 | 0.04 | 92 | 1010.9 |
| 20260902163001 | 62 | 117 | 0.0 | 1.0 | 0.00 | 0.04 | 0.04 | 92 | 1011.1 |
| 20260902161600 | 62 | 146 | 0.0 | 1.0 | 0.00 | 0.04 | 0.04 | 91 | 1011.2 |
| 20260902160108 | 62 | 129 | 0.0 | 1.0 | 0.00 | 0.04 | 0.04 | 91 | 1011.5 |
| 20260902154601 | 62 | 144 | 0.0 | 4.0 | 0.01 | 0.04 | 0.04 | 90 | 1011.7 |
| 20260902153054 | 62 | 135 | 0.0 | 1.0 | 0.01 | 0.04 | 0.04 | 91 | 1011.8 |
| 20260902151601 | 62 | 173 | 0.0 | 1.0 | 0.01 | 0.04 | 0.04 | 90 | 1012.0 |
| 20260902150051 | 62 | 145 | 0.0 | 1.0 | 0.01 | 0.04 | 0.04 | 90 | 1012.1 |
| 20260902144550 | 62 | 130 | 0.0 | 3.0 | 0.01 | 0.03 | 0.03 | 91 | 1012.3 |
| 20260902143049 | 62 | 113 | 0.0 | 0.0 | 0.01 | 0.03 | 0.03 | 91 | 1012.5 |
| 20260902141547 | 62 | 203 | 0.0 | 0.0 | 0.01 | 0.03 | 0.03 | 90 | 1012.6 |
| 20260902140048 | 62 | 201 | 0.0 | 0.0 | 0.00 | 0.02 | 0.02 | 89 | 1012.7 |
| 20260902134545 | 62 | 149 | 0.0 | 1.0 | 0.00 | 0.02 | 0.02 | 86 | 1012.7 |
| 20260902133044 | 63 | 146 | 0.0 | 1.0 | 0.00 | 0.02 | 0.02 | 86 | 1012.9 |
| 20260902131543 | 63 | 139 | 0.0 | 1.0 | 0.00 | 0.02 | 0.02 | 85 | 1013.1 |
| 20260902130041 | 64 | 148 | 0.0 | 1.0 | 0.00 | 0.02 | 0.02 | 85 | 1013.2 |
| 20260902124540 | 64 | 235 | 0.0 | 1.0 | 0.00 | 0.02 | 0.02 | 84 | 1013.3 |
| 20260902123037 | 64 | 160 | 0.0 | 1.0 | 0.00 | 0.02 | 0.02 | 86 | 1013.5 |
| 20260902121542 | 64 | 188 | 0.0 | 2.0 | 0.01 | 0.02 | 0.02 | 87 | 1013.5 |
| 20260902120040 | 64 | 179 | 0.0 | 0.0 | 0.01 | 0.02 | 0.02 | 89 | 1013.7 |
| 20260902114540 | 64 | 214 | 0.0 | 1.0 | 0.02 | 0.02 | 0.02 | 88 | 1013.8 |
| 20260902113034 | 64 | 165 | 0.0 | 0.0 | 0.02 | 0.02 | 0.02 | 88 | 1014.0 |
| 20260902111533 | 64 | 200 | 0.0 | 1.0 | 0.01 | 0.01 | 0.01 | 87 | 1014.1 |
| 20260902110039 | 64 | 148 | 0.0 | 0.0 | 0.01 | 0.01 | 0.01 | 85 | 1014.2 |
| 20260902104546 | 65 | 151 | 0.0 | 0.0 | 0.00 | 0.00 | 0.00 | 83 | 1014.3 |
| 20260902103030 | 65 | 161 | 0.0 | 0.0 | 0.00 | 0.00 | 0.00 | 81 | 1014.2 |
| 20260902101531 | 65 | 83 | 0.0 | 0.0 | 0.00 | 0.00 | 0.00 | 80 | 1014.3 |
| 20260902100029 | 65 | 205 | 0.0 | 0.0 | 0.00 | 0.00 | 0.00 | 80 | 1014.4 |
| 20260902094529 | 65 | 108 | 0.0 | 1.0 | 0.00 | 0.00 | 0.00 | 79 | 1014.3 |
| 20260902093030 | 65 | 188 | 0.0 | 1.0 | 0.00 | 0.00 | 0.00 | 79 | 1014.4 |
| 20260902091528 | 65 | 115 | 0.0 | 0.0 | 0.00 | 0.00 | 0.00 | 81 | 1014.5 |
| 20260902090028 | 65 | 142 | 0.0 | 1.0 | 0.00 | 0.00 | 0.00 | 80 | 1014.5 |
| 20260902084525 | 65 | 146 | 0.0 | 4.0 | 0.00 | 0.00 | 0.00 | 82 | 1014.6 |
| 20260902083022 | 65 | 126 | 0.0 | 2.0 | 0.00 | 0.00 | 0.00 | 84 | 1014.5 |
| 20260902081518 | 64 | 151 | 0.0 | 0.0 | 0.00 | 0.00 | 0.00 | 86 | 1014.3 |
| 20260902080022 | 63 | 94 | 0.0 | 0.0 | 0.00 | 0.00 | 0.00 | 86 | 1014.3 |
| 20260902074516 | 63 | 182 | 0.0 | 1.0 | 0.00 | 0.00 | 0.00 | 87 | 1014.4 |
| 20260902073014 | 62 | 152 | 0.0 | 3.0 | 0.00 | 0.00 | 0.00 | 89 | 1014.3 |
| 20260902071511 | 61 | 193 | 0.0 | 1.0 | 0.00 | 0.00 | 0.00 | 91 | 1014.1 |
| 20260902070008 | 60 | 151 | 0.0 | 0.0 | 0.00 | 0.00 | 0.00 | 93 | 1014.2 |
| 20260902064512 | 60 | 150 | 0.0 | 0.0 | 0.00 | 0.00 | 0.00 | 93 | 1014.4 |
| 20260902063006 | 59 | 150 | 0.0 | 0.0 | 0.00 | 0.00 | 0.00 | 93 | 1014.4 |
| 20260902061505 | 0 | 0.0 | 0.0 | 0.00 | 0.00 | 0.00 | 1014.3 | ||
| 20260902060134 | 0 | 0.0 | 0.0 | 0.00 | 0.00 | 0.00 | 1014.4 | ||
| 20260902054555 | 0 | 0.0 | 0.0 | 0.00 | 0.00 | 0.00 | 1014.2 | ||
| 20260902053051 | 0 | 0.0 | 0.0 | 0.00 | 0.00 | 0.00 | 1014.0 | ||
| 20260902051553 | 0 | 0.0 | 0.0 | 0.00 | 0.00 | 0.00 | 1014.0 | ||
| 20260902050042 | 0 | 0.0 | 0.0 | 0.00 | 0.00 | 0.00 | 1014.0 | ||
| 20260902044544 | 0 | 0.0 | 0.0 | 0.00 | 0.00 | 0.00 | 1014.2 | ||
| 20260902043033 | 0 | 0.0 | 0.0 | 0.00 | 0.00 | 0.00 | 1014.2 | ||
| 20260902041532 | 0 | 0.0 | 0.0 | 0.00 | 0.00 | 0.00 | 1014.0 | ||
| 20260902040025 | 59 | 143 | 0.0 | 0.0 | 0.00 | 0.00 | 0.00 | 91 | 1014.0 |
| 20260902034525 | 59 | 176 | 0.0 | 0.0 | 0.00 | 0.00 | 0.00 | 91 | 1014.1 |
| 20260902033025 | 59 | 152 | 0.0 | 0.0 | 0.00 | 0.00 | 0.00 | 91 | 1014.0 |
| 20260902031535 | 60 | 148 | 0.0 | 0.0 | 0.00 | 0.00 | 0.00 | 91 | 1014.1 |
| 20260902030021 | 60 | 147 | 0.0 | 0.0 | 0.00 | 0.00 | 0.00 | 90 | 1014.3 |
| 20260902024520 | 60 | 156 | 0.0 | 0.0 | 0.00 | 0.00 | 0.00 | 90 | 1014.4 |
| 20260902023019 | 60 | 148 | 0.0 | 0.0 | 0.00 | 0.00 | 0.00 | 90 | 1014.4 |
| 20260902021525 | 60 | 123 | 0.0 | 0.0 | 0.00 | 0.00 | 0.00 | 90 | 1014.5 |
| 20260902020017 | 60 | 141 | 0.0 | 1.0 | 0.00 | 0.00 | 0.00 | 90 | 1014.6 |
| 20260902014540 | 60 | 76 | 0.0 | 1.0 | 0.00 | 0.00 | 0.00 | 90 | 1014.6 |
| 20260902013015 | 60 | 192 | 0.0 | 1.0 | 0.00 | 0.00 | 0.00 | 90 | 1014.5 |
| 20260902011515 | 60 | 188 | 0.0 | 0.0 | 0.00 | 0.00 | 0.00 | 90 | 1014.5 |
| 20260902010017 | 60 | 74 | 0.0 | 0.0 | 0.00 | 0.00 | 0.00 | 90 | 1014.6 |
| 20260902004513 | 60 | 143 | 0.0 | 0.0 | 0.00 | 0.00 | 0.00 | 90 | 1014.5 |
| 20260902003012 | 60 | 139 | 0.0 | 2.0 | 0.00 | 0.00 | 0.00 | 90 | 1014.5 |
| 20260902001512 | 60 | 71 | 0.0 | 0.0 | 0.00 | 0.00 | 0.00 | 90 | 1014.6 |
| 20260902000011 | 60 | 111 | 0.0 | 1.0 | 0.00 | 0.00 | 0.00 | 90 | 1014.6 |
| 20260901234523 | 60 | 143 | 0.0 | 1.0 | 0.00 | 0.00 | 0.00 | 91 | 1014.7 |
| 20260901233008 | 60 | 140 | 0.0 | 0.0 | 0.00 | 0.00 | 0.00 | 91 | 1014.8 |
| 20260901231507 | 60 | 208 | 0.0 | 0.0 | 0.00 | 0.00 | 0.00 | 91 | 1014.7 |
| 20260901230012 | 61 | 201 | 0.0 | 0.0 | 0.00 | 0.00 | 0.00 | 90 | 1014.8 |
| 20260901224504 | 61 | 187 | 0.0 | 1.0 | 0.00 | 0.00 | 0.00 | 89 | 1014.7 |
| 20260901223009 | 61 | 67 | 0.0 | 3.0 | 0.00 | 0.00 | 0.00 | 88 | 1014.8 |
| 20260901221507 | 61 | 155 | 0.0 | 1.0 | 0.00 | 0.00 | 0.00 | 87 | 1014.8 |
| 20260901220011 | 61 | 159 | 0.0 | 3.0 | 0.00 | 0.00 | 0.00 | 87 | 1014.8 |
| 20260901214501 | 61 | 129 | 0.0 | 0.0 | 0.00 | 0.00 | 0.00 | 87 | 1014.9 |
| 20260901213002 | 61 | 197 | 0.0 | 1.0 | 0.00 | 0.00 | 0.00 | 87 | 1015.0 |
| 20260901211502 | 61 | 170 | 0.0 | 1.0 | 0.00 | 0.00 | 0.00 | 87 | 1015.0 |
| 20260901204600 | 61 | 166 | 0.0 | 0.0 | 0.00 | 0.00 | 0.00 | 86 | 1015.1 |
| 20260901203104 | 61 | 178 | 0.0 | 0.0 | 0.00 | 0.00 | 0.00 | 85 | 1015.0 |
| 20260901201559 | 62 | 146 | 0.0 | 0.0 | 0.00 | 0.00 | 0.00 | 84 | 1015.1 |
| 20260901200059 | 62 | 184 | 0.0 | 0.0 | 0.00 | 0.00 | 0.00 | 84 | 1015.0 |
| 20260901194558 | 62 | 169 | 0.0 | 1.0 | 0.00 | 0.00 | 0.00 | 83 | 1015.0 |
| 20260901193108 | 62 | 152 | 0.0 | 0.0 | 0.00 | 0.00 | 0.00 | 83 | 1015.0 |
| 20260901191559 | 62 | 111 | 0.0 | 0.0 | 0.00 | 0.00 | 0.00 | 82 | 1015.0 |
| 20260901190055 | 62 | 181 | 0.0 | 1.0 | 0.00 | 0.00 | 0.00 | 81 | 1014.9 |
| 20260901184602 | 63 | 108 | 0.0 | 10.0 | 0.00 | 0.00 | 0.00 | 81 | 1014.7 |
| 20260901183057 | 63 | 194 | 0.0 | 3.0 | 0.00 | 0.00 | 0.00 | 81 | 1014.6 |
| 20260901181555 | 63 | 209 | 0.0 | 2.0 | 0.00 | 0.00 | 0.00 | 81 | 1014.6 |
| 20260901180053 | 63 | 216 | 0.0 | 3.0 | 0.00 | 0.00 | 0.00 | 80 | 1014.6 |
| 20260901174552 | 63 | 123 | 0.0 | 1.0 | 0.00 | 0.00 | 0.00 | 80 | 1014.6 |
| 20260901173052 | 63 | 124 | 0.0 | 6.0 | 0.00 | 0.00 | 0.00 | 80 | 1014.6 |
| 20260901171600 | 63 | 121 | 0.0 | 1.0 | 0.00 | 0.00 | 0.00 | 79 | 1014.6 |
| 20260901170051 | 63 | 114 | 0.0 | 2.0 | 0.00 | 0.00 | 0.00 | 79 | 1014.7 |